Retour au catalogue

STARLINK-32148

ActifCommunicationsVLEO
NORAD 60263·PAYLOAD·🇺🇸 United States

Lancé Jul 27, 2024 depuis Cape Canaveral Space Force Station

Loading…

Prochains Passages (prochaines 24 heures)

TLE

FraisSource: CelesTrak SupGP

Époque: Sep 15, 2026, 03:09 UTC

1 60263C 24131J   26258.13173611 -.00038995  00000+0 -12538-2 0  2588
2 60263  53.1571 251.2510 0001362  91.2354 156.8931 15.31726544    15

Suivez STARLINK-32148 en temps réel avec AllMySat

Download on the App Store